QPF
0.00 0.00 0.00 0.00 0.00 0.00 0.00 0.00 0.00 0.00 0.00 0.00 0.00 0.00 0.00 0.00 0.00 0.00 0.00 0.00 0.00 0.00 0.00 0.00 0.00 0.00 0.00 0.00 0.00 0.00 0.00 0.00 0.00 0.00 0.00 0.00 0.00 0.00 0.00 0.00 0.00 0.00 0.00 0.00
0.00 0.00 0.00 0.00 0.00 0.00 0.00 0.00 0.00 0.00 0.00 0.00 0.00 0.00 0.00 0.00 0.00 0.00 0.00 0.00 0.00 0.00 0.00 0.00 0.00 0.00 0.00 0.00 0.00 0.00 0.00 0.00 0.00 0.00 0.00 0.00 0.00 0.00 0.00 0.00 0.00 0.00 0.00 0.00
0.00 0.00 0.00 0.00 0.00 0.00 0.01 0.01 0.01 0.01 0.00 0.00 0.00 0.00 0.00 0.00 0.00 0.00 0.00 0.00 0.00 0.00 0.00 0.00 0.00 0.00 0.00 0.00 0.00 0.00 0.00 0.00 0.00 0.00 0.00 0.00 0.00 0.00 0.00 0.00 0.00 0.00 0.00 0.00
0.00 0.00 0.00 0.00 0.00 0.01 0.01 0.00 0.00 0.00 0.00 0.00 0.00 0.00 0.00 0.00 0.00 0.00 0.00 0.00 0.00 0.00 0.00 0.00 0.00 0.00 0.00 0.00 0.00 0.00 0.00 0.00 0.00 0.00 0.00 0.00 0.00 0.00 0.00 0.00 0.00 0.00 0.00 0.00
0.00 0.00 0.00 0.00 0.01 0.01 0.00 0.00 0.00 0.00 0.00 0.00 0.00 0.00 0.00 0.00 0.00 0.00 0.00 0.00 0.00 0.00 0.00 0.00 0.00 0.00 0.00 0.00 0.00 0.00 0.00 0.00 0.00 0.00 0.00 0.00 0.00 0.00 0.00 0.00 0.00 0.00 0.00 0.00
0.00 0.00 0.00 0.01 0.00 0.01 0.01 0.00 0.00 0.00 0.00 0.01 0.00 0.00 0.00 0.00 0.00 0.00 0.00 0.00 0.00 0.00 0.00 0.00 0.00 0.00 0.00 0.00 0.00 0.00 0.00 0.00 0.00 0.00 0.00 0.00 0.00 0.00 0.00 0.00 0.00 0.00 0.00 0.00
0.00 0.00 0.00 0.00 0.00 0.01 0.00 0.01 0.01 0.01 0.01 0.00 0.00 0.00 0.00 0.00 0.00 0.00 0.00 0.00 0.00 0.00 0.00 0.00 0.00 0.00 0.00 0.00 0.00 0.00 0.00 0.00 0.00 0.00 0.00 0.00 0.00 0.00 0.00 0.00 0.00 0.00 0.00 0.00
0.01 0.00 0.00 0.01 0.01 0.02 0.01 0.01 0.01 0.01 0.00 0.00 0.00 0.00 0.00 0.00 0.00 0.00 0.00 0.00 0.00 0.00 0.00 0.00 0.00 0.00 0.00 0.00 0.00 0.00 0.00 0.00 0.00 0.00 0.00 0.00 0.00 0.00 0.00 0.00 0.00 0.00 0.00 0.00
0.01 0.01 0.00 0.00 0.00 0.02 0.01 0.00 0.01 0.01 0.00 0.00 0.00 0.00 0.00 0.00 0.00 0.00 0.00 0.00 0.00 0.00 0.00 0.00 0.00 0.00 0.00 0.00 0.00 0.00 0.00 0.00 0.00 0.00 0.00 0.00 0.00 0.00 0.00 0.00 0.00 0.00 0.00 0.00
0.01 0.01 0.00 0.00 0.00 0.00 0.00 0.00 0.00 0.01 0.01 0.00 0.00 0.00 0.00 0.00 0.00 0.00 0.00 0.00 0.00 0.00 0.00 0.00 0.00 0.00 0.00 0.00 0.00 0.00 0.00 0.00 0.00 0.00 0.00 0.00 0.00 0.00 0.00 0.00 0.00 0.00 0.00 0.01
0.01 0.02 0.01 0.01 0.01 0.01 0.01 0.01 0.01 0.01 0.01 0.01 0.01 0.00 0.00 0.00 0.00 0.00 0.00 0.00 0.00 0.00 0.00 0.00 0.00 0.00 0.00 0.00 0.00 0.00 0.00 0.00 0.00 0.00 0.00 0.00 0.00 0.00 0.00 0.00 0.00 0.00 0.00 0.02
0.01 0.02 0.01 0.00 0.00 0.00 0.00 0.00 0.00 0.02 0.01 0.01 0.00 0.00 0.00 0.00 0.00 0.00 0.00 0.00 0.00 0.00 0.00 0.00 0.00 0.00 0.00 0.00 0.00 0.00 0.00 0.00 0.00 0.00 0.00 0.00 0.00 0.00 0.00 0.00 0.00 0.00 0.01 0.02
0.01 0.01 0.01 0.00 0.00 0.00 0.00 0.00 0.00 0.00 0.01 0.00 0.01 0.00 0.00 0.00 0.00 0.00 0.00 0.00 0.00 0.00 0.00 0.00 0.00 0.00 0.00 0.00 0.00 0.00 0.00 0.00 0.00 0.00 0.00 0.00 0.00 0.00 0.00 0.00 0.00 0.01 0.02 0.03
0.01 0.01 0.01 0.01 0.00 0.01 0.00 0.00 0.00 0.00 0.00 0.00 0.00 0.00 0.00 0.00 0.00 0.00 0.00 0.00 0.00 0.00 0.00 0.00 0.00 0.00 0.00 0.00 0.00 0.00 0.00 0.00 0.00 0.00 0.00 0.00 0.00 0.00 0.00 0.00 0.00 0.01 0.02 0.02
0.00 0.00 0.00 0.00 0.00 0.00 0.00 0.00 0.00 0.00 0.00 0.00 0.00 0.00 0.00 0.00 0.00 0.00 0.00 0.00 0.00 0.00 0.00 0.00 0.00 0.00 0.00 0.00 0.00 0.00 0.00 0.00 0.00 0.00 0.00 0.00 0.00 0.00 0.00 0.00 0.01 0.02 0.02 0.02
0.01 0.00 0.00 0.00 0.00 0.00 0.00 0.00 0.00 0.00 0.00 0.00 0.00 0.00 0.00 0.00 0.00 0.00 0.00 0.00 0.00 0.00 0.00 0.00 0.00 0.00 0.00 0.00 0.00 0.00 0.00 0.00 0.00 0.00 0.00 0.00 0.00 0.00 0.00 0.00 0.02 0.01 0.02 0.02
0.00 0.00 0.00 0.00 0.00 0.00 0.00 0.00 0.00 0.00 0.00 0.00 0.00 0.00 0.00 0.00 0.00 0.00 0.00 0.00 0.00 0.00 0.00 0.00 0.00 0.00 0.00 0.00 0.00 0.00 0.00 0.00 0.00 0.00 0.00 0.00 0.00 0.00 0.00 0.02 0.02 0.01 0.01 0.03
0.00 0.00 0.00 0.00 0.00 0.00 0.00 0.00 0.00 0.00 0.00 0.00 0.00 0.00 0.00 0.00 0.00 0.00 0.00 0.00 0.00 0.00 0.00 0.00 0.00 0.00 0.00 0.00 0.00 0.00 0.00 0.00 0.00 0.00 0.00 0.00 0.00 0.00 0.00 0.01 0.01 0.00 0.01 0.01
0.00 0.00 0.00 0.00 0.00 0.00 0.00 0.00 0.00 0.00 0.00 0.00 0.00 0.00 0.00 0.00 0.00 0.00 0.00 0.00 0.00 0.00 0.00 0.00 0.00 0.00 0.00 0.00 0.00 0.00 0.00 0.00 0.00 0.00 0.00 0.00 0.00 0.00 0.00 0.00 0.00 0.00 0.01 0.01
0.00 0.00 0.00 0.00 0.00 0.00 0.00 0.00 0.00 0.00 0.00 0.00 0.00 0.00 0.00 0.00 0.00 0.00 0.00 0.00 0.00 0.00 0.00 0.00 0.00 0.00 0.00 0.00 0.00 0.00 0.00 0.00 0.00 0.00 0.00 0.00 0.00 0.00 0.00 0.00 0.00 0.00 0.00 0.00
0.00 0.00 0.00 0.01 0.01 0.00 0.00 0.00 0.00 0.01 0.00 0.00 0.00 0.00 0.00 0.00 0.00 0.00 0.00 0.00 0.00 0.00 0.00 0.00 0.00 0.00 0.00 0.00 0.00 0.00 0.00 0.00 0.00 0.00 0.00 0.00 0.00 0.00 0.00 0.00 0.00 0.00 0.00 0.00
0.00 0.00 0.01 0.00 0.00 0.00 0.00 0.00 0.01 0.00 0.00 0.00 0.00 0.00 0.00 0.00 0.00 0.00 0.00 0.00 0.00 0.00 0.00 0.00 0.00 0.00 0.00 0.00 0.00 0.00 0.00 0.00 0.00 0.00 0.00 0.00 0.00 0.00 0.00 0.00 0.00 0.00 0.00 0.00
0.00 0.00 0.01 0.00 0.00 0.00 0.00 0.00 0.00 0.00 0.00 0.00 0.00 0.00 0.00 0.00 0.00 0.00 0.00 0.00 0.00 0.00 0.00 0.00 0.00 0.00 0.00 0.00 0.00 0.00 0.00 0.00 0.00 0.00 0.00 0.00 0.00 0.00 0.00 0.00 0.00 0.00 0.00 0.00
0.00 0.00 0.00 0.00 0.00 0.00 0.00 0.00 0.00 0.00 0.00 0.00 0.00 0.00 0.00 0.00 0.00 0.00 0.00 0.00 0.00 0.00 0.00 0.00 0.00 0.00 0.00 0.00 0.00 0.00 0.00 0.00 0.00 0.00 0.00 0.00 0.00 0.00 0.00 0.00 0.00 0.00 0.00 0.00
0.00 0.00 0.00 0.00 0.00 0.00 0.00 0.00 0.00 0.00 0.00 0.00 0.00 0.00 0.00 0.00 0.00 0.00 0.00 0.00 0.00 0.00 0.00 0.00 0.00 0.00 0.00 0.00 0.00 0.00 0.00 0.00 0.00 0.00 0.00 0.00 0.00 0.00 0.00 0.00 0.00 0.00 0.00 0.00
0.00 0.00 0.00 0.00 0.00 0.00 0.00 0.00 0.00 0.00 0.00 0.00 0.00 0.00 0.00 0.00 0.00 0.00 0.00 0.00 0.00 0.00 0.00 0.00 0.00 0.00 0.00 0.00 0.00 0.00 0.00 0.00 0.00 0.00 0.00 0.00 0.00 0.00 0.00 0.00 0.00 0.00 0.00 0.00
MSLP
1015.66 1015.57 1015.05 1014.74 1014.76 1014.12 1014.15 1013.41 1012.46 1011.39 1010.85 1009.97 1009.23 1008.19 1006.89 1006.66 1006.05 1005.53 1005.06 1004.54 1004.19 1004.18 1004.34 1004.84 1005.43 1005.93 1006.31 1006.61 1006.87 1006.96 1006.86 1006.63 1006.49 1006.27 1005.95 1005.49 1005.06 1004.65 1004.24 1004.09 1003.93 1003.90 1003.94 1004.01
1015.87 1015.21 1014.82 1014.59 1014.58 1013.82 1013.52 1013.00 1012.36 1011.45 1010.99 1010.76 1009.54 1007.87 1007.28 1006.19 1005.43 1004.75 1004.35 1004.02 1004.27 1004.64 1005.36 1005.58 1005.84 1006.22 1006.58 1006.70 1006.74 1006.65 1006.54 1006.38 1006.15 1005.94 1005.61 1005.18 1004.66 1004.19 1003.81 1003.41 1003.10 1003.03 1002.99 1003.11
1016.46 1015.12 1015.01 1014.84 1014.25 1014.33 1014.03 1013.42 1012.54 1012.10 1011.28 1010.70 1009.88 1008.17 1007.40 1005.68 1005.25 1004.40 1004.26 1004.80 1004.97 1005.55 1006.12 1006.36 1006.55 1006.66 1006.80 1006.92 1006.84 1006.65 1006.40 1006.20 1005.93 1005.82 1005.52 1005.08 1004.50 1003.75 1003.40 1002.98 1002.60 1002.49 1002.42 1002.35
1016.10 1015.33 1015.40 1014.90 1014.54 1014.51 1013.75 1013.73 1013.16 1012.56 1012.16 1011.38 1011.00 1008.85 1007.46 1005.84 1004.60 1003.81 1004.36 1005.19 1005.51 1006.18 1006.56 1006.83 1006.97 1006.96 1006.91 1006.78 1006.66 1006.49 1006.20 1005.90 1005.53 1005.35 1005.07 1004.72 1004.24 1003.54 1002.77 1002.23 1001.85 1001.67 1001.56 1001.64
1016.04 1015.95 1015.40 1014.89 1014.58 1014.35 1014.27 1014.09 1014.01 1013.40 1012.69 1012.06 1010.51 1010.01 1007.28 1005.56 1005.13 1005.18 1005.45 1005.91 1006.43 1006.89 1007.23 1007.32 1007.14 1006.91 1006.81 1006.69 1006.48 1006.11 1005.77 1005.43 1005.12 1004.82 1004.55 1004.20 1003.67 1003.11 1002.35 1001.92 1001.54 1000.92 1000.72 1000.79
1016.33 1015.89 1015.33 1014.43 1014.14 1014.41 1014.60 1014.69 1014.15 1013.49 1012.80 1012.12 1010.22 1009.67 1007.39 1006.13 1005.99 1005.90 1006.48 1007.07 1007.44 1007.69 1007.62 1007.48 1007.37 1007.21 1006.89 1006.65 1006.39 1005.99 1005.51 1004.99 1004.72 1004.39 1004.06 1003.62 1002.90 1002.40 1001.90 1001.38 1000.97 1000.38 1000.17 999.98
1016.22 1015.43 1014.86 1014.46 1014.66 1014.58 1015.26 1015.67 1015.00 1014.08 1013.22 1012.22 1010.40 1009.64 1007.83 1006.51 1006.40 1007.00 1007.74 1007.99 1008.11 1008.04 1007.93 1007.80 1007.63 1007.43 1007.15 1006.78 1006.36 1005.80 1005.22 1004.67 1004.49 1004.06 1003.46 1003.03 1002.38 1001.86 1001.41 1000.75 1000.34 1000.07 999.30 999.20
1016.45 1015.09 1015.23 1014.72 1015.00 1014.89 1015.33 1016.07 1016.24 1015.06 1014.37 1013.17 1011.58 1009.91 1007.69 1007.33 1007.75 1007.97 1008.45 1008.62 1008.45 1008.55 1008.48 1008.43 1008.26 1007.93 1007.42 1006.87 1006.34 1005.73 1005.15 1004.56 1004.30 1003.73 1002.98 1002.45 1001.77 1001.27 1000.63 1000.07 999.72 999.23 998.64 998.13
1017.87 1016.60 1016.26 1015.51 1015.07 1015.33 1015.25 1015.77 1015.87 1015.82 1014.79 1014.27 1012.15 1009.88 1008.47 1008.55 1008.81 1009.05 1009.24 1009.02 1009.13 1009.02 1009.00 1008.82 1008.41 1007.96 1007.41 1006.88 1006.31 1005.74 1004.96 1004.13 1003.58 1002.93 1002.25 1001.41 1000.91 1000.35 999.57 999.09 998.83 998.27 997.95 997.18
1019.64 1017.26 1017.15 1015.84 1015.47 1015.38 1015.63 1015.71 1016.02 1016.09 1015.70 1014.68 1012.64 1011.26 1010.21 1009.89 1010.05 1009.76 1009.73 1009.94 1009.83 1009.61 1009.45 1009.07 1008.67 1008.05 1007.52 1006.86 1006.05 1005.34 1004.70 1003.67 1002.70 1002.02 1001.29 1000.39 999.83 999.18 998.44 998.05 997.55 997.15 996.60 996.51
1019.86 1019.01 1017.49 1016.50 1016.56 1016.69 1016.42 1016.37 1016.66 1016.66 1016.54 1015.58 1014.03 1012.22 1011.06 1011.29 1011.10 1011.00 1010.65 1010.67 1010.50 1010.21 1009.85 1009.28 1008.64 1008.00 1007.33 1006.60 1005.83 1004.81 1003.96 1003.11 1002.12 1001.04 999.97 999.24 998.49 998.01 997.43 996.88 996.22 995.84 995.39 995.09
1020.27 1019.90 1019.04 1018.45 1017.13 1016.65 1016.86 1016.86 1017.05 1017.31 1017.12 1016.83 1016.10 1012.16 1011.31 1011.26 1011.31 1011.29 1011.13 1010.88 1010.61 1010.45 1009.78 1009.15 1008.60 1007.85 1006.93 1006.09 1005.18 1004.24 1003.13 1002.17 1001.03 999.98 998.89 997.71 997.00 996.56 995.96 995.41 994.83 994.56 993.92 993.81
1020.43 1020.08 1019.60 1018.67 1017.85 1017.76 1017.58 1017.40 1017.70 1017.90 1017.80 1016.79 1016.33 1013.31 1011.29 1011.35 1011.35 1011.17 1011.32 1011.08 1011.03 1010.63 1009.86 1009.22 1008.62 1007.82 1006.91 1005.77 1004.37 1003.29 1002.28 1001.08 999.66 998.44 997.24 996.11 995.19 994.81 994.21 993.58 993.37 993.23 992.79 992.68
1020.44 1020.70 1021.16 1020.84 1020.10 1019.65 1018.99 1018.29 1018.20 1018.35 1017.94 1016.34 1015.57 1013.50 1012.18 1011.83 1011.73 1011.44 1011.34 1011.52 1011.32 1010.85 1010.26 1009.65 1008.84 1008.01 1007.01 1005.48 1003.93 1002.53 1001.21 999.85 998.25 996.78 995.31 993.97 992.92 992.28 991.97 991.79 991.95 992.11 991.90 991.51
1020.68 1020.88 1021.18 1020.74 1020.17 1019.72 1019.01 1018.47 1017.89 1017.97 1017.36 1016.87 1014.67 1014.18 1012.73 1012.41 1012.05 1011.82 1011.83 1011.93 1011.80 1011.11 1010.49 1009.98 1009.26 1008.36 1007.03 1005.26 1003.50 1002.11 1000.44 998.81 997.17 995.27 993.44 991.50 990.06 989.59 989.99 990.29 990.67 991.01 991.10 990.56
1020.27 1020.55 1020.84 1020.47 1019.63 1019.13 1018.64 1017.68 1017.37 1017.01 1016.45 1016.13 1015.35 1014.07 1012.61 1012.23 1012.11 1012.13 1012.37 1012.64 1012.33 1011.52 1010.94 1010.11 1009.64 1008.76 1007.21 1005.61 1003.86 1002.02 1000.09 998.30 996.35 994.14 991.70 989.15 987.24 987.60 988.33 989.20 989.73 990.00 990.10 989.84
1020.39 1020.52 1021.13 1020.29 1019.28 1018.73 1017.77 1016.81 1016.82 1016.80 1016.44 1016.21 1015.40 1013.75 1012.79 1012.43 1012.76 1012.86 1012.93 1013.29 1013.09 1012.20 1011.55 1010.51 1010.05 1009.24 1007.66 1006.20 1004.30 1002.15 1000.24 998.32 996.32 994.09 991.60 989.13 987.62 987.14 987.62 988.35 988.74 989.10 989.67 990.15
1020.18 1020.71 1020.94 1020.23 1019.13 1018.21 1016.94 1016.47 1016.58 1016.76 1016.12 1015.85 1015.12 1014.10 1013.47 1013.18 1013.07 1013.04 1013.48 1013.71 1013.19 1012.60 1011.96 1011.03 1010.56 1009.47 1008.09 1006.53 1004.92 1002.60 1000.34 998.56 997.00 994.81 992.83 990.45 989.25 988.52 988.41 988.77 989.29 989.40 989.76 990.93
1020.11 1020.44 1020.54 1020.12 1019.34 1017.18 1016.25 1016.43 1016.68 1016.58 1015.94 1015.43 1015.34 1014.40 1013.75 1013.16 1012.92 1013.43 1013.86 1013.81 1013.54 1012.94 1012.32 1011.54 1011.09 1010.16 1008.88 1007.29 1005.63 1003.62 1001.47 999.80 997.93 995.91 994.01 992.51 991.72 990.79 990.30 990.43 990.28 990.55 990.80 990.43
1019.60 1019.61 1020.13 1019.53 1018.77 1017.38 1016.63 1016.01 1015.83 1016.30 1015.80 1015.35 1015.30 1015.04 1014.48 1013.49 1013.67 1013.91 1013.75 1013.84 1013.54 1012.78 1012.29 1011.40 1011.10 1010.59 1009.70 1008.40 1006.86 1005.38 1003.16 1001.62 999.48 997.53 996.33 995.21 993.31 992.17 992.43 992.42 992.01 991.21 991.56 991.74
1019.98 1019.09 1019.22 1018.88 1017.90 1016.36 1015.53 1015.18 1015.19 1015.78 1015.83 1014.95 1014.96 1014.54 1014.29 1014.38 1014.24 1013.86 1013.38 1013.45 1013.54 1012.80 1012.25 1011.58 1010.97 1010.82 1010.57 1009.40 1007.98 1006.66 1005.34 1003.85 1002.35 1000.67 998.60 996.23 994.07 993.50 993.11 992.95 992.94 992.87 992.20 992.79
1020.04 1019.34 1018.23 1017.93 1017.20 1016.00 1015.05 1014.74 1015.49 1015.25 1014.63 1014.64 1014.46 1013.94 1013.85 1013.49 1013.33 1013.53 1013.27 1012.87 1013.13 1012.77 1012.15 1011.86 1011.23 1010.86 1010.77 1010.50 1009.40 1007.71 1006.26 1004.77 1003.35 1001.84 999.84 998.45 997.59 996.77 996.15 995.37 995.25 994.31 993.77 995.11
1018.89 1018.30 1018.23 1017.83 1016.02 1014.65 1014.74 1014.73 1014.41 1014.48 1014.79 1014.25 1013.77 1013.28 1013.05 1012.83 1012.71 1012.48 1012.88 1012.42 1012.41 1012.56 1012.30 1012.07 1011.88 1011.31 1010.93 1011.15 1010.76 1009.64 1008.15 1006.00 1004.47 1002.80 1002.00 1001.32 1000.00 999.26 998.81 997.91 997.15 997.05 997.70 997.55
1017.37 1016.74 1016.98 1016.61 1015.02 1014.72 1014.25 1013.98 1014.20 1014.16 1014.12 1013.62 1013.35 1012.95 1012.57 1012.54 1012.23 1012.09 1012.26 1012.39 1012.17 1012.34 1012.62 1012.53 1012.25 1012.12 1011.60 1011.33 1011.52 1011.49 1010.49 1008.37 1006.46 1005.19 1003.93 1003.03 1002.55 1001.94 1000.85 1000.50 1000.16 999.94 1000.23 1000.26
1016.80 1016.39 1015.93 1015.52 1014.78 1014.31 1013.68 1013.85 1014.19 1014.10 1013.99 1013.79 1013.52 1013.28 1012.71 1012.32 1012.13 1011.90 1011.91 1012.33 1012.39 1012.46 1012.80 1013.07 1013.05 1012.80 1012.74 1012.10 1012.02 1012.13 1011.31 1010.61 1008.84 1007.97 1006.96 1005.53 1004.63 1004.20 1003.78 1003.34 1003.54 1003.45 1003.16 1003.04
1015.64 1015.12 1015.29 1014.76 1014.72 1014.88 1014.28 1014.15 1014.42 1014.67 1014.70 1014.54 1014.22 1013.42 1013.02 1012.73 1012.23 1012.05 1011.97 1012.14 1012.65 1012.87 1013.05 1013.52 1013.76 1013.65 1013.50 1013.54 1012.95 1012.51 1012.58 1011.46 1010.83 1009.63 1008.88 1008.73 1008.09 1007.09 1006.42 1006.06 1005.84 1004.91 1005.02 1005.26
Thickness
5430 5410 5397 5383 5371 5366 5344 5335 5326 5342 5353 5348 5345 5351 5368 5371 5374 5374 5376 5380 5381 5377 5378 5362 5359 5363 5362 5359 5359 5364 5371 5381 5392 5407 5426 5445 5465 5483 5504 5522 5536 5548 5560 5572
5408 5395 5394 5379 5361 5355 5342 5330 5320 5330 5338 5329 5334 5341 5351 5364 5369 5372 5372 5372 5362 5355 5349 5351 5351 5348 5344 5345 5345 5350 5356 5365 5374 5386 5402 5421 5443 5462 5483 5504 5522 5536 5550 5561
5376 5382 5375 5355 5345 5322 5312 5315 5315 5309 5320 5326 5324 5324 5335 5359 5360 5368 5365 5356 5353 5347 5338 5335 5336 5334 5331 5330 5332 5337 5341 5347 5356 5363 5374 5394 5416 5441 5462 5484 5505 5521 5535 5549
5372 5371 5348 5333 5319 5310 5301 5310 5307 5307 5301 5287 5311 5285 5324 5345 5357 5367 5352 5348 5346 5334 5329 5325 5323 5321 5319 5320 5320 5323 5328 5334 5341 5346 5356 5371 5389 5413 5444 5466 5487 5505 5520 5535
5354 5332 5327 5311 5308 5311 5292 5298 5288 5292 5287 5286 5302 5280 5318 5347 5348 5350 5346 5338 5328 5321 5315 5311 5311 5312 5311 5309 5310 5313 5318 5323 5328 5334 5340 5349 5369 5393 5421 5443 5463 5488 5506 5521
5341 5336 5316 5311 5313 5305 5296 5282 5284 5288 5286 5274 5303 5307 5320 5335 5337 5341 5324 5314 5311 5306 5305 5303 5301 5300 5300 5299 5298 5301 5308 5314 5317 5323 5329 5337 5353 5372 5393 5419 5443 5468 5489 5507
5343 5330 5321 5315 5279 5288 5263 5245 5260 5228 5256 5276 5328 5302 5313 5335 5330 5317 5301 5299 5298 5299 5296 5292 5289 5287 5287 5286 5285 5287 5294 5300 5303 5310 5319 5326 5337 5350 5367 5395 5421 5446 5474 5494
5296 5288 5298 5300 5282 5270 5272 5254 5249 5253 5250 5266 5303 5249 5312 5324 5309 5308 5303 5290 5294 5288 5282 5277 5274 5271 5271 5273 5274 5276 5278 5283 5286 5294 5304 5314 5325 5334 5350 5372 5398 5425 5455 5481
5278 5283 5285 5287 5281 5276 5260 5233 5265 5259 5249 5230 5273 5311 5334 5312 5302 5293 5284 5287 5281 5275 5269 5264 5262 5259 5257 5255 5256 5260 5266 5274 5278 5283 5291 5304 5313 5324 5340 5358 5377 5405 5434 5465
5257 5252 5271 5275 5274 5269 5263 5272 5243 5256 5240 5218 5264 5279 5284 5285 5272 5282 5278 5270 5265 5262 5256 5254 5251 5248 5244 5241 5243 5247 5251 5259 5267 5271 5278 5291 5300 5314 5331 5345 5362 5389 5421 5445
5248 5234 5248 5258 5231 5241 5254 5240 5256 5256 5235 5249 5250 5254 5263 5263 5252 5251 5255 5261 5250 5246 5244 5244 5243 5241 5237 5235 5235 5240 5243 5246 5250 5255 5264 5273 5288 5299 5316 5332 5353 5376 5406 5435
5244 5229 5213 5221 5241 5246 5241 5237 5250 5228 5216 5225 5226 5266 5253 5246 5250 5252 5254 5255 5247 5241 5243 5239 5235 5234 5233 5233 5233 5235 5237 5235 5238 5245 5252 5265 5276 5289 5303 5325 5348 5369 5397 5419
5230 5216 5210 5204 5215 5227 5235 5245 5235 5226 5223 5225 5226 5254 5264 5280 5272 5261 5252 5243 5240 5242 5240 5234 5230 5228 5228 5229 5231 5230 5228 5229 5235 5241 5246 5256 5271 5283 5301 5325 5345 5364 5392 5411
5234 5217 5183 5194 5185 5211 5216 5214 5214 5206 5201 5227 5239 5253 5265 5266 5261 5262 5247 5240 5230 5233 5232 5227 5224 5222 5220 5222 5224 5227 5227 5225 5232 5238 5244 5254 5271 5290 5307 5328 5344 5360 5382 5405
5220 5201 5174 5182 5198 5208 5205 5212 5213 5191 5222 5231 5251 5242 5256 5253 5253 5251 5244 5236 5227 5232 5229 5223 5219 5218 5218 5219 5224 5225 5226 5230 5233 5240 5250 5266 5285 5305 5317 5331 5346 5360 5374 5404
5220 5209 5187 5192 5200 5190 5194 5217 5217 5237 5241 5231 5232 5233 5250 5248 5252 5249 5238 5228 5225 5229 5224 5221 5216 5215 5219 5220 5223 5225 5232 5235 5241 5248 5264 5286 5312 5323 5332 5339 5351 5365 5381 5406
5215 5201 5186 5185 5205 5211 5225 5239 5221 5216 5228 5219 5228 5248 5260 5254 5247 5235 5233 5222 5217 5221 5221 5221 5216 5214 5218 5220 5225 5230 5236 5245 5249 5262 5275 5296 5318 5334 5342 5349 5360 5374 5385 5407
5221 5200 5201 5189 5207 5212 5238 5214 5217 5207 5210 5220 5236 5247 5249 5243 5239 5232 5222 5216 5221 5220 5222 5222 5217 5217 5221 5223 5229 5239 5246 5254 5260 5274 5286 5304 5317 5329 5336 5346 5355 5376 5392 5402
5213 5212 5200 5197 5183 5241 5259 5233 5220 5211 5222 5246 5233 5238 5239 5241 5243 5235 5223 5216 5218 5220 5220 5220 5217 5217 5221 5226 5233 5245 5254 5259 5268 5281 5296 5310 5317 5326 5339 5353 5367 5379 5394 5417
5220 5221 5211 5206 5209 5197 5227 5227 5229 5217 5235 5232 5220 5210 5224 5250 5247 5233 5224 5216 5222 5224 5222 5227 5223 5219 5220 5227 5234 5241 5255 5261 5274 5284 5294 5306 5323 5336 5345 5353 5371 5388 5405 5417
5189 5215 5200 5211 5221 5223 5236 5242 5244 5241 5233 5218 5222 5213 5229 5233 5230 5222 5222 5223 5220 5225 5226 5230 5230 5225 5221 5226 5234 5242 5249 5256 5267 5280 5296 5319 5341 5348 5357 5365 5379 5388 5407 5416
5192 5180 5229 5188 5196 5212 5239 5248 5234 5229 5227 5224 5224 5228 5226 5232 5227 5223 5220 5228 5228 5230 5231 5228 5231 5232 5227 5223 5228 5243 5251 5258 5271 5283 5300 5313 5323 5334 5341 5354 5364 5380 5394 5397
5194 5214 5199 5212 5212 5243 5230 5231 5230 5223 5218 5222 5233 5238 5242 5243 5240 5243 5235 5241 5239 5235 5234 5232 5229 5233 5233 5226 5225 5231 5242 5259 5270 5283 5289 5296 5315 5321 5330 5340 5353 5362 5366 5375
5218 5222 5210 5212 5228 5224 5231 5237 5234 5230 5231 5237 5237 5239 5243 5243 5245 5243 5240 5239 5240 5237 5233 5232 5230 5230 5233 5232 5228 5222 5228 5245 5263 5274 5283 5292 5298 5307 5319 5327 5334 5342 5348 5357
5215 5216 5218 5219 5233 5235 5240 5239 5231 5229 5226 5230 5231 5231 5237 5240 5240 5243 5241 5236 5237 5236 5232 5228 5228 5231 5228 5232 5230 5224 5228 5231 5250 5257 5265 5278 5287 5293 5301 5311 5312 5317 5325 5331
5219 5215 5211 5220 5227 5224 5233 5229 5225 5220 5221 5220 5222 5227 5231 5235 5238 5240 5239 5236 5231 5231 5229 5225 5224 5225 5225 5222 5227 5229 5226 5233 5236 5248 5256 5258 5265 5278 5285 5291 5297 5310 5314 5317